Vorticity
nan nan nan nan nan nan nan nan nan nan nan nan nan nan nan nan nan nan nan nan nan nan nan nan nan nan nan nan nan nan nan nan nan nan nan nan nan nan nan nan nan nan nan nan nan nan nan nan nan
nan 7 4 5 8 4 6 10 11 8 2 4 9 9 7 6 5 4 9 15 16 10 7 6 4 6 5 5 6 8 7 7 6 6 6 6 5 5 4 4 5 6 6 6 6 6 5 4 nan
nan 6 7 4 6 3 5 8 6 2 7 9 6 5 6 6 5 9 12 16 14 9 5 9 6 6 5 5 5 6 7 7 6 6 6 5 5 5 4 4 6 6 6 6 6 5 4 5 nan
nan 7 5 5 2 2 3 1 -4 -1 7 4 0 7 4 5 7 11 13 18 11 8 5 5 6 7 6 5 5 6 6 6 7 7 6 6 5 4 4 4 6 6 6 6 6 5 5 5 nan
nan 5 6 5 5 3 3 -2 -0 4 6 3 4 8 5 0 6 13 18 15 10 6 7 2 5 8 6 5 5 5 6 6 7 6 6 6 5 5 4 5 5 6 7 7 6 6 6 6 nan
nan 5 7 6 8 4 -0 10 6 8 6 7 9 3 10 -2 -1 11 15 12 11 7 8 6 4 7 6 5 5 5 5 6 6 7 6 6 5 5 5 5 5 6 6 7 6 6 5 6 nan
nan 6 1 6 9 6 7 7 4 6 6 7 11 11 9 -3 -3 9 14 12 10 8 7 8 5 2 3 6 6 6 6 6 6 7 7 6 6 6 6 6 6 6 6 6 6 6 5 5 nan
nan 7 10 6 5 5 11 2 6 7 6 8 7 6 -2 -6 5 10 10 13 11 9 7 6 7 5 4 2 4 6 6 6 7 6 7 7 5 5 6 5 8 6 6 6 6 6 5 5 nan
nan 7 9 10 7 7 5 4 4 6 6 1 0 0 1 6 7 6 7 10 10 8 8 7 7 6 6 5 3 3 5 4 4 4 6 7 7 6 4 5 6 6 6 6 6 6 6 3 nan
nan 2 5 10 13 10 3 2 1 3 6 6 4 8 6 2 0 3 4 8 13 10 9 6 7 7 4 6 8 5 5 5 5 5 4 3 7 7 4 6 4 6 6 5 5 6 5 4 nan
nan 3 8 9 5 7 2 3 2 6 6 5 5 6 -1 -3 2 4 5 5 11 14 9 8 7 7 5 4 5 7 7 8 10 8 4 4 6 7 5 5 6 6 5 5 5 4 4 5 nan
nan 8 4 5 3 2 3 6 8 6 5 6 8 6 4 6 9 8 7 7 9 12 11 8 6 6 5 4 7 6 6 7 8 10 6 3 6 8 6 7 8 5 8 7 4 4 7 7 nan
nan 2 5 5 5 4 7 9 9 10 12 10 12 12 13 12 10 10 9 9 10 11 13 8 7 6 6 5 5 7 7 8 8 8 7 5 6 7 7 6 6 7 8 7 7 6 8 7 nan
nan 5 5 12 14 12 13 9 15 15 10 10 10 9 9 7 7 10 10 10 10 12 11 12 8 6 7 7 5 6 9 8 8 9 8 7 5 7 7 6 5 7 7 8 7 8 7 7 nan
nan 8 12 20 10 8 16 16 10 6 9 7 6 3 1 4 5 4 6 9 8 10 12 12 11 7 6 7 6 6 7 6 8 9 10 9 6 6 5 7 7 6 8 8 7 7 7 7 nan
nan 11 13 6 1 9 9 5 3 1 6 3 -1 0 7 8 6 10 7 3 6 9 11 10 13 9 5 5 6 6 6 6 8 8 10 9 9 6 6 7 8 6 8 9 8 7 7 7 nan
nan -1 6 5 11 2 0 0 6 -0 1 4 9 10 8 8 10 10 9 10 7 7 10 13 12 9 7 5 7 8 7 7 6 7 9 9 7 9 7 6 9 6 5 8 9 8 7 7 nan
nan 7 5 6 6 5 4 7 -1 5 12 12 11 12 10 9 11 10 9 10 10 9 8 11 12 14 8 5 7 9 9 10 8 8 9 8 7 8 7 7 8 7 5 7 8 9 7 8 nan
nan 6 4 5 7 13 10 6 4 11 14 13 12 10 9 11 17 13 11 11 11 9 9 11 10 11 6 7 7 8 8 6 8 10 11 7 8 9 7 7 8 8 8 7 7 8 9 8 nan
nan 6 7 10 4 -1 11 11 24 15 15 17 11 11 12 11 9 15 15 11 11 10 10 10 13 11 4 2 7 8 9 8 8 9 11 8 7 9 9 7 6 8 9 10 9 5 5 10 nan
nan 11 8 2 5 14 14 14 14 16 6 4 13 17 18 17 17 14 12 12 10 12 10 11 15 10 8 3 2 6 8 9 10 8 9 12 9 5 7 6 8 9 9 10 11 10 4 3 nan
nan 11 7 5 9 12 11 15 -0 7 5 7 12 13 11 16 20 23 26 16 12 12 12 13 16 13 10 9 5 7 4 7 7 9 9 11 10 7 7 6 8 9 11 11 9 10 8 6 nan
nan 1 5 15 11 15 18 5 2 -1 2 8 11 13 12 9 11 22 40 35 23 20 13 15 16 13 12 10 6 6 4 6 9 13 13 10 13 11 9 15 12 10 6 9 9 10 9 8 nan
nan 8 15 15 17 14 11 3 7 2 6 5 7 7 12 11 13 13 16 28 28 28 28 28 23 25 25 19 17 10 7 8 8 11 12 12 11 14 14 10 8 6 5 2 3 9 10 8 nan
nan 12 20 11 6 4 4 4 -0 4 12 12 9 7 11 13 11 10 10 12 13 18 21 24 22 22 23 18 21 26 19 12 14 9 10 10 8 10 12 7 1 -0 7 9 7 6 7 8 nan
nan 12 12 6 -1 7 12 22 -4 -3 9 11 9 11 9 14 13 9 10 11 10 8 15 12 11 11 11 11 10 14 18 14 12 13 14 11 12 14 10 5 4 5 7 9 9 8 9 9 nan
nan 9 8 14 10 9 9 21 -7 -14 9 9 9 9 9 10 11 10 10 9 10 10 9 11 12 10 11 12 9 9 11 12 9 9 12 12 9 9 7 12 13 13 10 7 5 6 11 11 nan
nan 11 13 9 8 8 10 4 -5 1 7 10 10 7 8 9 10 12 10 9 10 11 10 10 7 9 10 9 13 11 7 10 11 10 9 10 9 9 10 10 9 8 10 12 9 9 11 8 nan
nan 11 7 9 10 5 10 7 4 6 7 7 10 9 8 9 11 12 11 10 10 10 10 11 9 7 10 9 6 8 9 10 11 9 8 8 10 9 10 10 10 10 10 8 8 8 10 10 nan
nan nan nan nan nan nan nan nan nan nan nan nan nan nan nan nan nan nan nan nan nan nan nan nan nan nan nan nan nan nan nan nan nan nan nan nan nan nan nan nan nan nan nan nan nan nan nan nan nan
CAPE
0 0 0 0 0 0 0 0 0 0 0 0 0 0 0 0 0 0 924 1013 1056 1350 1740 1727 1315 1336 1413 1559 1752 1941 2103 2115 2080 2017 1977 2028 2096 2160 2121 2160 2159 2261 2265 1875 1678 1893 1801 1706 1821
0 0 0 0 0 0 0 0 0 0 0 0 0 0 0 0 0 12 478 1056 1163 1583 1890 1828 1306 1367 1475 1574 1815 2058 2303 2249 2125 2084 2097 2155 2240 2201 2188 2182 2112 2221 2257 1978 1766 1829 1791 1725 1715
0 0 0 0 0 0 0 0 0 0 0 0 0 0 0 0 0 0 1389 1296 1331 1743 1895 1992 1367 1384 1538 1633 1849 2052 2197 2082 2065 2083 2246 2311 2376 2302 2258 2109 2078 2297 2395 2202 1886 1857 1734 1567 1383
0 0 0 0 0 0 0 0 0 0 0 0 0 0 0 0 159 586 1116 1358 1592 1865 1913 1426 1337 1453 1565 1711 1894 2047 2013 1960 1983 2052 2278 2425 2480 2379 2211 2004 2132 2387 2477 2387 2028 1746 1503 1161 1062
0 0 0 0 0 0 0 0 0 0 0 0 0 0 0 0 0 459 1785 1404 1791 2086 2136 2132 1326 1494 1619 1855 1938 1893 1825 1827 1939 2084 2206 2349 2454 2316 2073 1964 2126 2231 2317 2206 1970 1588 1211 969 853
0 0 0 0 0 0 0 0 0 0 0 0 0 0 0 0 0 357 1825 1776 1897 2291 2387 2353 1461 1530 1646 1804 1797 1643 1620 1720 1896 2063 2173 2282 2291 2117 1998 1976 2062 1997 1977 1810 1504 1203 1029 791 698
0 0 0 0 0 0 0 0 0 0 0 0 0 0 0 0 0 137 1135 2140 2137 2451 2665 2682 2258 1886 1553 1664 1555 1428 1446 1595 1791 1978 2103 2193 2078 1904 1904 1976 1974 1900 1690 1427 1184 985 780 618 477
0 0 0 0 0 0 0 0 0 0 0 0 0 0 0 0 0 41 808 1640 2183 2350 2597 2752 2560 2342 2247 2117 1305 1258 1290 1400 1591 1775 1926 1896 1748 1696 1774 1879 1918 1708 1437 1178 1025 783 673 473 194
0 0 0 0 0 0 0 0 0 0 0 0 0 0 0 0 0 0 50 1111 2015 2195 2443 2655 2635 2502 2454 2367 1868 1119 1116 1234 1346 1539 1576 1605 2040 2157 2115 1867 1790 1524 1106 934 800 627 600 394 104
0 0 0 0 0 0 0 0 0 0 0 0 0 0 0 0 0 0 0 0 1101 2186 2251 2431 2579 2469 2412 2080 2300 2026 1755 1747 1841 1881 2161 2038 2060 2115 2008 1771 1529 1350 900 716 592 468 344 358 1019
0 0 0 0 0 0 0 0 0 0 0 0 0 0 0 0 0 0 0 0 9 1705 1944 2046 2360 2429 2337 1974 2126 2070 2064 1871 1926 1998 2107 1968 2131 2232 2075 2258 2090 1979 955 1061 692 836 1015 950 1079
0 0 0 0 0 0 0 0 0 0 0 0 0 0 0 0 0 0 0 0 0 526 1742 1763 1864 2204 2312 1842 1970 2032 2160 2194 2062 2139 2494 2446 2320 2273 2145 2128 1959 1909 1566 1363 920 830 917 1254 1191
0 0 0 0 0 0 0 0 0 0 0 0 0 0 0 0 0 0 0 0 0 0 1154 1535 1641 1947 2103 2017 1731 1992 2089 2119 2083 2183 2693 2461 2311 2353 2192 2238 2018 1916 1828 1511 1547 1339 1311 1342 1164
0 0 0 0 0 0 0 0 0 0 0 0 0 0 0 0 0 0 0 0 0 0 321 1199 1448 1728 1830 1804 1849 1935 2082 2050 2048 2107 2274 2502 2326 2359 2328 2268 2110 2286 2131 1741 1705 1575 1487 1300 1155
0 0 0 0 0 0 0 0 0 0 0 0 0 0 0 0 0 0 0 0 0 0 91 507 1372 1523 1619 1552 1913 1836 1729 1596 1815 1851 1903 1996 2339 2325 2258 2122 2219 1971 2100 1973 1764 1549 1472 1307 1189
0 0 0 0 0 0 0 0 0 0 0 0 0 0 0 0 0 0 0 0 0 0 0 188 824 1251 1420 1477 1709 1771 1697 1625 1548 1841 1937 2002 1858 2215 2104 1917 1940 2028 2262 1906 1843 1662 1509 1267 1212
0 0 0 0 0 0 0 0 0 0 0 0 0 0 0 0 0 0 0 0 0 0 0 0 863 1235 1336 1359 1585 1852 1688 1749 1813 1666 1698 1729 1782 1936 1856 1800 1607 2162 2015 1682 1768 1683 1560 1395 1217
0 0 0 0 0 0 0 0 0 0 0 0 0 0 0 0 0 0 0 0 0 0 0 0 376 1389 1485 1476 1614 1677 1680 1749 1717 1804 1924 1863 1473 1775 1585 1675 1294 1874 1972 1757 1611 1562 1654 1507 1522
0 0 0 0 0 0 0 0 0 0 0 0 0 0 0 0 0 0 0 0 0 0 0 0 56 1517 1865 1647 1746 1568 1500 1162 1361 1444 1309 1501 1260 1324 1380 1474 1396 1955 1821 1728 1382 1483 1381 1483 1381
0 0 0 0 0 0 0 0 0 0 0 0 0 0 0 0 0 0 0 0 0 0 0 0 0 1238 1717 1817 1886 1881 1912 1333 1117 1068 1144 1240 1039 1165 1094 1470 1785 1704 1697 1816 1119 1504 1329 1349 1400
0 0 0 0 0 0 0 0 0 0 0 0 0 2 0 5 5 1 0 0 0 0 0 0 0 566 1603 1746 1851 1766 1978 1419 1124 1201 1328 1595 1587 1351 987 1385 1672 1648 1581 1512 1066 1189 1160 929 945
0 0 0 0 0 5 3 1 0 0 0 3 0 12 6 5 17 21 6 0 0 0 0 0 0 114 1568 1717 1679 1606 1755 1413 1274 1534 1313 1363 1553 1531 1715 1863 1637 1682 1365 1188 1032 1142 1413 1658 991
0 0 0 0 3 3 0 1 0 0 11 2 3 4 7 20 28 14 0 40 0 0 0 0 0 0 1366 1974 1764 1878 1743 1730 1518 1396 1594 1836 1570 1566 1631 1680 1735 1115 1154 833 691 445 1058 1829 1881
0 0 4 1 1 1 0 0 1 7 32 16 11 11 11 21 26 10 4 104 189 92 38 6 0 2 1171 1984 2082 2163 1939 2040 2394 2234 2392 2046 1854 1469 1526 838 381 292 48 30 64 759 877 983 1503
6 18 13 11 12 2 0 3 9 7 10 34 22 30 15 16 19 17 13 11 4 0 14 1 0 0 0 0 35 1343 2434 2328 2311 2225 1797 1552 1088 589 358 594 90 3 0 5 0 232 629 825 1027
12 6 18 21 30 21 0 17 8 1 5 14 13 18 8 10 16 19 17 13 13 3 0 0 0 0 0 0 0 0 0 0 1 44 669 1249 1232 1437 1191 836 529 326 96 327 419 391 634 1089 1033
6 61 20 32 38 25 21 10 2 0 2 13 22 5 10 12 9 16 15 16 19 14 6 0 0 0 0 0 0 0 0 0 0 0 0 1 142 278 423 422 1026 826 635 795 817 842 804 874 866
4 18 45 61 50 18 66 4 19 12 22 12 16 15 15 9 10 9 17 20 20 21 14 15 4 0 0 0 0 0 0 0 0 0 0 0 0 0 0 0 11 0 339 826 1022 953 893 671 752
19 34 22 22 34 85 147 16 44 31 39 21 19 16 19 8 13 12 6 2 23 30 23 8 7 1 0 2 0 0 0 0 0 0 0 0 0 0 0 0 0 0 0 39 390 557 516 431 476
14 13 27 42 81 50 45 24 31 35 42 30 16 15 14 21 9 10 12 9 5 12 13 9 9 6 3 2 1 1 0 0 0 0 0 0 0 0 0 0 0 0 0 0 0 38 295 281 233